Weather History for Granbury, TX

Change the Weather History Date:

Thursday, February 7, 2013

  Actual Average (KSEP) Record (KSEP)
Temperature  
Mean Temperature 64 °F -  
Max Temperature 77 °F 50 °F 87 °F (1932)
Min Temperature 51 °F 30 °F 11 °F (1923)
Degree Days  
Heating Degree Days 1    
Growing Degree Days 14 (Base 50)    
Moisture  
Dew Point 50 °F    
Average Humidity 62    
Maximum Humidity 88    
Minimum Humidity 26    
Precipitation  
Precipitation 0.00 in - - ()
Sea Level Pressure  
Sea Level Pressure 29.94 in    
Wind  
Wind Speed 13 mph (WSW)    
Max Wind Speed 22 mph    
Max Gust Speed 31 mph    
Visibility 10 miles    
Events      
Averages and records for this station are not official NWS values.
T = Trace of Precipitation, MM = Missing Value Source: NWS Daily Summary

Daily Weather History Graph

Daily Weather History Graph

Search for Another Location

Airport:

Trip Planner

Search our weather history database for the weather conditions in past years. The results will help you decide how hot, cold, wet, or windy it might be!

Date:

Astronomy

Feb. 07, 2013 Rise Set
Actual Time 7:20 AM CST 6:10 PM CST
Civil Twilight 6:55 AM CST 6:35 PM CST
Nautical Twilight 6:26 AM CST 7:04 PM CST
Astronomical Twilight 5:57 AM CST 7:33 PM CST
Moon 4:56 AM CST (2/7) 3:40 PM CST (2/7)
Length of Visible Light 11h 40m
Length of Day
10h 49m
Waning Crescent, 9% of the Moon is Illuminated
Feb 7
Waning Crescent
Feb 10
New
Feb 17
First Quarter
Feb 25
Full
Mar 4
Last Quarter

Hourly Weather History & Observations

Time (CST) Temp. Dew Point Humidity Pressure Visibility Wind Dir Wind Speed Gust Speed Precip Events Conditions
12:15 AM 62.6 °F 59.0 °F 88% 29.90 in 10.0 mi SE 13.8 mph 19.6 mph N/A   Overcast
12:55 AM 62.6 °F 57.2 °F 82% 29.90 in 10.0 mi SSE 15.0 mph - N/A   Overcast
1:15 AM 62.6 °F 57.2 °F 82% 29.91 in 10.0 mi SE 16.1 mph 24.2 mph N/A   Overcast
1:35 AM 62.6 °F 57.2 °F 82% 29.90 in 10.0 mi SSE 13.8 mph - N/A   Overcast
1:55 AM 62.6 °F 55.4 °F 77% 29.90 in 10.0 mi SE 11.5 mph 18.4 mph N/A   Overcast
2:15 AM 62.6 °F 55.4 °F 77% 29.90 in 10.0 mi SSE 6.9 mph - N/A   Overcast
2:35 AM 62.6 °F 55.4 °F 77% 29.89 in 10.0 mi SE 10.4 mph 17.3 mph N/A   Overcast
2:55 AM 62.6 °F 55.4 °F 77% 29.88 in 10.0 mi SE 8.1 mph - N/A   Overcast
3:15 AM 62.6 °F 55.4 °F 77% 29.88 in 10.0 mi SE 11.5 mph - N/A   Overcast
3:35 AM 62.6 °F 55.4 °F 77% 29.88 in 10.0 mi SSE 10.4 mph - N/A   Overcast
3:55 AM 62.6 °F 55.4 °F 77% 29.88 in 10.0 mi SSE 9.2 mph - N/A   Overcast
4:15 AM 62.6 °F 55.4 °F 77% 29.88 in 10.0 mi SSE 8.1 mph - N/A   Overcast
4:35 AM 62.6 °F 55.4 °F 77% 29.88 in 10.0 mi SSE 9.2 mph - N/A   Overcast
4:55 AM 62.6 °F 55.4 °F 77% 29.88 in 10.0 mi South 8.1 mph - N/A   Overcast
5:15 AM 62.6 °F 55.4 °F 77% 29.88 in 10.0 mi SSE 8.1 mph - N/A   Overcast
5:35 AM 62.6 °F 55.4 °F 77% 29.89 in 10.0 mi South 9.2 mph - N/A   Overcast
5:55 AM 62.6 °F 55.4 °F 77% 29.89 in 10.0 mi South 8.1 mph - N/A   Overcast
6:15 AM 62.6 °F 55.4 °F 77% 29.89 in 10.0 mi South 9.2 mph - N/A   Overcast
6:35 AM 62.6 °F 55.4 °F 77% 29.89 in 10.0 mi South 8.1 mph - N/A   Overcast
6:55 AM 62.6 °F 55.4 °F 77% 29.89 in 10.0 mi South 8.1 mph - N/A   Overcast
7:15 AM 62.6 °F 55.4 °F 77% 29.90 in 10.0 mi SSW 11.5 mph - N/A   Overcast
7:35 AM 62.6 °F 55.4 °F 77% 29.89 in 10.0 mi South 9.2 mph - N/A   Overcast
7:55 AM 60.8 °F 53.6 °F 77% 29.89 in 10.0 mi SSE 5.8 mph - N/A   Scattered Clouds
8:15 AM 62.6 °F 53.6 °F 72% 29.89 in 10.0 mi SSE 8.1 mph - N/A   Clear
8:35 AM 62.6 °F 55.4 °F 77% 29.89 in 10.0 mi South 8.1 mph - N/A   Clear
8:55 AM 64.4 °F 55.4 °F 73% 29.89 in 10.0 mi South 11.5 mph - N/A   Clear
9:15 AM 66.2 °F 55.4 °F 68% 29.90 in 10.0 mi SSW 10.4 mph 16.1 mph N/A   Clear
9:35 AM 68.0 °F 55.4 °F 64% 29.90 in 10.0 mi SSW 13.8 mph 19.6 mph N/A   Clear
10:15 AM 69.8 °F 55.4 °F 60% 29.90 in 10.0 mi WSW 13.8 mph - N/A   Clear
10:35 AM 71.6 °F 55.4 °F 57% 29.90 in 10.0 mi SW 13.8 mph 18.4 mph N/A   Clear
10:55 AM 73.4 °F 55.4 °F 53% 29.89 in 10.0 mi SW 16.1 mph 20.7 mph N/A   Clear
11:15 AM 73.4 °F 53.6 °F 50% 29.89 in 10.0 mi WSW 11.5 mph 21.9 mph N/A   Clear
11:35 AM 73.4 °F 53.6 °F 50% 29.88 in 10.0 mi SW 15.0 mph 18.4 mph N/A   Clear
11:55 AM 77.0 °F 53.6 °F 44% 29.88 in 10.0 mi West 11.5 mph 18.4 mph N/A   Clear
12:15 PM 77.0 °F 51.8 °F 41% 29.87 in 10.0 mi WSW 12.7 mph 23.0 mph N/A   Clear
12:35 PM 77.0 °F 51.8 °F 41% 29.87 in 10.0 mi West 16.1 mph 20.7 mph N/A   Clear
12:55 PM 77.0 °F 50.0 °F 39% 29.87 in 10.0 mi West 16.1 mph 21.9 mph N/A   Clear
1:15 PM 77.0 °F 50.0 °F 39% 29.86 in 10.0 mi West 15.0 mph 25.3 mph N/A   Clear
1:35 PM 77.0 °F 39.2 °F 26% 29.87 in 10.0 mi WNW 19.6 mph 26.5 mph N/A   Clear
1:55 PM 73.4 °F 37.4 °F 27% 29.87 in 10.0 mi West 20.7 mph 26.5 mph N/A   Clear
2:15 PM 73.4 °F 37.4 °F 27% 29.88 in 10.0 mi West 17.3 mph 25.3 mph N/A   Clear
2:35 PM 73.4 °F 42.8 °F 33% 29.88 in 10.0 mi West 15.0 mph 29.9 mph N/A   Clear
2:55 PM 73.4 °F 44.6 °F 36% 29.89 in 10.0 mi WNW 18.4 mph 27.6 mph N/A   Clear
3:15 PM 73.4 °F 46.4 °F 38% 29.89 in 10.0 mi WNW 16.1 mph 24.2 mph N/A   Clear
3:35 PM 73.4 °F 46.4 °F 38% 29.89 in 10.0 mi WNW 20.7 mph 26.5 mph N/A   Clear
3:55 PM 71.6 °F 46.4 °F 41% 29.90 in 10.0 mi WNW 20.7 mph 27.6 mph N/A   Clear
4:15 PM 71.6 °F 46.4 °F 41% 29.91 in 10.0 mi NW 16.1 mph 24.2 mph N/A   Clear
4:35 PM 71.6 °F 48.2 °F 43% 29.92 in 10.0 mi WNW 15.0 mph 25.3 mph N/A   Clear
4:55 PM 69.8 °F 50.0 °F 49% 29.93 in 10.0 mi WNW 13.8 mph 26.5 mph N/A   Clear
5:15 PM 68.0 °F 50.0 °F 52% 29.94 in 10.0 mi WNW 16.1 mph 21.9 mph N/A   Clear
5:35 PM 68.0 °F 50.0 °F 52% 29.96 in 10.0 mi WNW 18.4 mph 25.3 mph N/A   Scattered Clouds
5:55 PM 68.0 °F 50.0 °F 52% 29.97 in 10.0 mi WNW 17.3 mph 27.6 mph N/A   Mostly Cloudy
6:15 PM 64.4 °F 50.0 °F 59% 29.98 in 10.0 mi NW 21.9 mph 31.1 mph N/A   Mostly Cloudy
6:35 PM 64.4 °F 48.2 °F 56% 29.99 in 10.0 mi NW 17.3 mph 27.6 mph N/A   Scattered Clouds
6:55 PM 62.6 °F 46.4 °F 55% 30.00 in 10.0 mi NW 15.0 mph 25.3 mph N/A   Scattered Clouds
7:15 PM 60.8 °F 46.4 °F 59% 30.02 in 10.0 mi NW 11.5 mph 23.0 mph N/A   Mostly Cloudy
7:35 PM 60.8 °F 46.4 °F 59% 30.04 in 10.0 mi NW 16.1 mph 25.3 mph N/A   Overcast
7:55 PM 59.0 °F 46.4 °F 63% 30.05 in 10.0 mi NW 13.8 mph 20.7 mph N/A   Mostly Cloudy
8:15 PM 59.0 °F 46.4 °F 63% 30.07 in 10.0 mi NW 16.1 mph 27.6 mph N/A   Clear
8:35 PM 57.2 °F 44.6 °F 63% 30.08 in 10.0 mi NW 11.5 mph 17.3 mph N/A   Clear
8:55 PM 57.2 °F 44.6 °F 63% 30.09 in 10.0 mi NW 15.0 mph 21.9 mph N/A   Clear
9:15 PM 55.4 °F 44.6 °F 67% 30.10 in 10.0 mi NW 18.4 mph 24.2 mph N/A   Clear
9:35 PM 55.4 °F 44.6 °F 67% 30.11 in 10.0 mi NW 13.8 mph - N/A   Clear
9:55 PM 55.4 °F 44.6 °F 67% 30.12 in 10.0 mi NW 15.0 mph 20.7 mph N/A   Clear
10:15 PM 53.6 °F 44.6 °F 72% 30.13 in 10.0 mi NW 11.5 mph 19.6 mph N/A   Clear
10:35 PM 53.6 °F 44.6 °F 72% 30.14 in 10.0 mi NW 13.8 mph 17.3 mph N/A   Clear
10:55 PM 53.6 °F 42.8 °F 67% 30.14 in 10.0 mi NW 13.8 mph - N/A   Clear
11:15 PM 53.6 °F 42.8 °F 67% 30.15 in 10.0 mi NW 10.4 mph 16.1 mph N/A   Clear
11:35 PM 51.8 °F 41.0 °F 67% 30.16 in 10.0 mi NNW 11.5 mph 17.3 mph N/A   Clear
11:55 PM 51.8 °F 41.0 °F 67% 30.17 in 10.0 mi NW 8.1 mph - N/A   Clear